Hourly Data Report for September 10, 2017

All times are specified in Local Standard Time (LST). Add 1 hour to adjust for Daylight Saving Time where and when it is observed.

COMOX A
BRITISH COLUMBIA

49°43'00.000" N
124°54'00.000" W
25.60 m
1021830
71893
YQQ

Download Data

Hourly Data (September 2017)
Hourly Data Report for September 10, 2017
Temp Definition
°C
Dew Point Temp Definition
°C
Rel Hum Definition
%
Wind Dir Definition
10's deg

Wind Spd Definition
km/h
Visibility Definition
km
Stn Press Definition
kPa
Hmdx Definition


Wind Chill Definition


Weather Definition


TIME
00:00 13.4 12.3 93 32 6 32.2 101.94     Mostly Cloudy
01:00 13.3 12.3 94   0 32.2 101.94     Mostly Cloudy
02:00 12.6 11.8 95 31 6 32.2 101.98     Mostly Cloudy
03:00 12.9 12.1 95 30 6 32.2 102.05     Mostly Cloudy
04:00 12.7 11.8 94 31 6 32.2 102.09     Cloudy
05:00 12.1 11.2 94 32 4 32.2 102.14     Mostly Cloudy
06:00 12.2 11.4 95   0 32.2 102.16     Cloudy
07:00 12.9 12.0 94 19 4 32.2 102.17     Cloudy
08:00 14.0 12.8 92 17 4 32.2 102.19     Cloudy
09:00 16.1 13.3 83 13 9 32.2 102.23     Cloudy
10:00 15.9 12.8 82 16 13 32.2 102.24     Mostly Cloudy
11:00 17.0 12.8 76 15 15 32.2 102.21     Cloudy
12:00 16.6 13.1 80 13 22 32.2 102.22     Cloudy
13:00 17.4 12.3 72 14 26 32.2 102.21     Cloudy
14:00 18.5 13.3 72 13 22 32.2 102.19     Cloudy
15:00 17.0 13.0 77 16 22 32.2 102.16     Mostly Cloudy
16:00 17.1 12.9 76 13 22 32.2 102.13     Mostly Cloudy
17:00 16.3 13.1 81 13 20 32.2 102.13     Mostly Cloudy
18:00 16.5 12.5 77 15 20 32.2 102.09     Mostly Cloudy
19:00 15.7 12.8 83 14 19 32.2 102.09     Mostly Cloudy
20:00 16.5 11.6 73 14 15 32.2 102.07     Mostly Cloudy
21:00 15.2 11.8 80 19 7 32.2 102.07     Mostly Cloudy
22:00 16.0 13.1 83 15 19 32.2 102.05     Mostly Cloudy
23:00 15.8 13.3 85 17 13 32.2 102.02     Mostly Cloudy

Notes on Data Quality.

Legend

  • E = Estimated
  • M = Missing
  • NA = Not Available
  • ‡ = Partner data that is not subject to review by the National Climate Archives
Date modified: